{"data":{"norad_id":62987,"epoch":"2026-05-24T14:42:17.684352Z","epoch_age_seconds":108439,"freshness":"FRESH","line1":"1 62987U 25031G   26144.61270468  .00145883  00000+0  11202-2 0  9990","line2":"2 62987  43.0002 263.7707 0001009 237.9837 122.0933 15.70848094 74685","mean_motion":15.70848094,"eccentricity":0.0001009,"inclination_deg":43.0002,"raan_deg":263.7707,"arg_perigee_deg":237.9837,"mean_anomaly_deg":122.0933,"bstar":0.0011202,"rev_number":7468,"period_min":91.670226134546,"perigee_km":355.7924054603,"apogee_km":357.15144954187,"semimajor_km":6734.6089275011,"source":"CELESTRAK","updated_at":"2026-05-25T13:38:19.831081Z"}}